Wetbulb
58.98 60.02 60.46 61.42 61.20 61.81 62.25 62.90 62.93 62.90 63.04 63.02 63.17 62.83 62.60 63.48 64.04 63.20 59.32 62.85 64.19 65.56 64.27 64.64 63.89 62.69 62.28 59.23 59.93 60.05 54.13 51.59 51.81 51.97 53.52 56.12 55.51 58.05 59.90 58.91 59.48 60.62 60.81 63.06 65.79
58.26 59.11 59.71 60.62 61.36 61.12 61.37 62.03 62.42 62.46 62.67 62.65 62.83 62.68 62.34 62.60 61.18 58.44 64.38 65.58 65.82 65.40 63.67 61.50 59.42 60.32 58.08 57.24 58.07 55.39 53.12 53.15 55.55 55.37 54.15 55.07 55.66 56.42 56.87 57.38 57.91 59.44 62.74 63.93 65.26
56.80 58.26 58.71 60.04 60.69 61.35 60.74 61.28 61.55 62.04 62.20 62.27 62.28 62.39 62.05 62.34 55.76 55.27 63.88 65.15 66.01 64.77 64.10 63.21 62.00 59.20 55.71 57.05 55.91 54.50 50.63 55.47 54.92 54.69 54.61 54.23 54.50 56.10 55.66 54.62 57.14 56.56 59.15 61.32 62.33
55.27 56.86 58.14 59.04 59.72 60.40 61.15 60.58 60.90 61.47 61.79 61.75 61.74 61.93 61.53 60.45 44.56 59.14 63.88 64.14 65.12 64.62 62.57 61.22 59.64 56.00 54.04 52.94 55.89 50.84 53.75 54.28 54.43 53.45 53.26 53.10 55.18 54.01 54.95 55.87 57.17 58.57 57.86 58.55 58.81
54.21 55.59 56.60 57.94 59.13 59.86 60.40 60.77 60.33 60.87 61.37 61.47 61.24 61.18 59.54 52.88 52.55 62.92 64.15 64.64 63.32 61.92 59.96 59.14 56.81 55.67 52.06 53.50 54.56 52.27 53.15 54.37 54.55 54.04 54.05 54.43 53.68 54.47 54.81 57.56 57.76 57.86 57.15 58.01 58.66
53.79 54.20 55.48 56.99 58.04 59.10 59.91 60.11 60.47 60.07 60.98 61.28 61.10 60.74 55.35 46.05 58.82 61.19 62.64 61.56 62.07 60.70 59.20 59.67 57.20 57.53 54.37 53.01 52.63 53.94 53.85 54.01 54.61 54.62 54.73 52.69 53.97 54.01 55.70 58.24 57.24 56.90 57.55 58.32 57.78
53.57 53.61 54.32 55.48 57.02 58.24 59.07 59.56 60.13 60.01 60.07 61.07 61.07 57.67 52.53 49.56 58.84 60.34 59.77 58.94 61.84 61.09 57.92 60.44 60.42 56.94 55.32 52.18 55.16 53.79 50.38 52.46 53.22 53.87 53.24 54.22 50.70 51.67 56.12 57.18 56.17 56.71 57.52 57.87 58.08
52.66 53.23 53.83 53.87 55.52 57.32 58.41 58.79 59.16 59.72 59.63 60.64 60.17 55.90 47.76 56.77 59.87 59.12 60.41 58.75 61.83 62.20 60.99 61.29 60.38 57.62 55.26 55.55 53.29 50.22 50.11 44.99 51.07 52.64 53.48 52.55 45.03 51.85 55.67 55.47 54.86 55.88 56.78 57.36 58.05
51.88 53.12 53.00 53.65 54.04 56.22 57.46 58.23 58.24 59.21 59.53 59.30 54.89 52.32 45.15 55.47 52.70 57.49 59.54 55.40 58.66 60.26 60.17 60.61 58.89 54.73 54.00 49.24 46.52 48.01 42.37 44.51 46.25 52.31 51.59 50.52 46.26 51.32 54.73 54.71 53.97 54.83 55.74 56.24 56.91
51.76 52.26 52.74 53.03 52.67 55.03 56.58 57.09 57.48 57.93 57.46 56.42 53.91 47.61 48.22 46.85 52.03 54.57 59.31 58.47 55.49 56.32 55.21 55.20 53.86 49.88 49.50 46.15 38.08 41.54 42.75 44.41 44.36 48.97 49.70 48.08 47.54 50.64 53.29 53.27 53.14 53.81 54.35 54.87 55.32
51.56 52.17 52.46 52.14 52.88 53.60 55.30 53.59 48.57 48.42 51.78 47.11 46.59 45.40 47.14 51.82 54.17 52.30 56.69 55.76 54.79 52.18 46.32 50.29 45.34 42.18 44.98 47.14 46.56 45.30 43.54 43.31 46.29 49.15 46.46 46.11 46.55 48.46 51.03 51.40 51.24 52.45 53.22 53.67 54.32
51.48 50.85 51.74 52.41 52.08 52.95 52.95 48.60 49.45 51.42 44.30 49.63 49.07 48.07 50.22 52.33 46.15 49.58 55.85 49.68 48.86 43.54 46.65 46.19 41.88 45.56 47.14 46.79 45.67 44.87 42.78 42.22 45.49 47.64 46.01 45.27 44.58 48.01 49.73 50.47 51.73 52.11 52.73 53.56 54.35
51.44 50.93 51.29 52.21 52.56 51.15 49.71 49.16 54.23 54.44 44.03 44.94 48.20 46.71 47.58 50.30 45.40 46.59 52.21 49.27 45.89 43.35 43.43 41.98 43.54 47.93 46.75 45.20 43.63 43.49 41.66 41.62 41.88 45.80 47.41 45.29 43.13 45.20 48.88 50.82 51.63 52.39 53.20 53.33 52.78
51.45 51.23 51.16 51.73 47.66 47.41 45.93 50.55 53.86 54.75 38.22 39.32 43.79 45.84 47.89 49.64 43.41 50.84 52.80 48.47 45.76 42.30 43.78 43.15 46.64 44.52 43.82 43.05 44.25 39.87 45.81 44.32 42.94 41.23 37.12 44.30 34.79 43.20 46.03 46.65 48.32 49.52 50.64 51.42 52.36
51.25 50.84 50.81 51.04 46.78 44.09 47.30 53.48 52.67 49.39 23.85 41.43 43.40 50.78 48.40 44.39 45.53 46.79 52.65 48.54 42.02 41.62 43.69 40.70 42.16 42.24 41.33 42.37 44.78 41.41 46.13 44.62 43.70 41.28 39.97 40.20 36.55 40.67 44.87 43.07 45.02 47.79 49.64 50.95 50.72
50.93 50.60 50.70 49.60 48.97 49.17 50.24 53.29 49.84 32.96 24.58 37.14 42.17 41.27 42.33 43.39 43.60 46.77 47.39 50.23 48.47 43.31 43.25 42.56 46.66 45.12 43.65 44.71 45.63 46.43 43.30 42.49 42.13 40.11 31.72 37.21 36.68 37.49 41.52 43.64 45.93 47.96 48.31 48.03 48.17
50.43 50.40 49.74 49.96 43.86 50.92 50.56 47.35 32.36 27.12 37.65 34.15 36.33 40.45 39.94 38.72 40.57 42.76 41.33 40.99 38.91 35.46 35.56 39.81 40.35 45.17 45.71 41.31 44.90 43.58 39.17 31.29 28.84 30.16 29.02 38.40 35.87 38.34 44.04 46.21 47.17 47.17 47.90 46.40 46.40
50.29 50.13 49.05 48.20 50.63 49.73 45.26 34.23 25.51 33.12 33.10 38.89 38.83 38.82 36.39 38.82 39.14 40.88 39.40 37.17 41.74 40.67 37.18 34.00 31.77 40.62 44.76 42.19 39.25 40.24 39.31 31.12 23.78 26.89 31.31 38.26 32.46 38.49 46.33 48.35 47.99 46.81 47.83 45.97 45.17
49.92 48.44 47.29 48.49 49.94 48.63 36.85 25.71 29.12 33.27 37.40 36.30 37.32 34.59 35.00 37.53 37.84 39.07 38.51 37.81 40.42 41.43 35.59 34.43 33.98 42.56 43.95 44.92 43.74 39.15 35.54 41.56 34.21 34.56 30.82 35.66 38.92 43.73 45.69 43.97 44.22 44.75 45.02 45.01 44.77
45.35 44.29 43.33 48.04 49.14 43.72 31.18 27.42 31.71 39.72 39.69 39.59 32.50 35.51 31.80 34.18 35.46 36.76 36.89 40.89 39.68 43.07 43.84 38.28 33.08 39.29 41.62 44.42 44.12 41.32 43.35 34.07 33.80 26.71 25.42 31.82 34.06 36.42 41.40 42.64 44.33 42.92 43.71 44.62 43.45
43.79 37.10 43.80 48.12 47.40 35.70 26.62 28.65 32.83 38.17 41.56 37.76 36.01 34.49 34.78 34.26 36.88 35.15 35.74 40.09 42.79 41.86 43.31 40.13 36.51 35.12 39.96 38.01 37.23 38.31 36.56 37.93 37.81 34.81 27.38 26.78 32.76 43.59 42.77 44.43 43.46 44.01 44.29 43.98 41.97
42.05 31.00 45.97 47.99 31.99 31.90 29.49 32.17 35.18 35.76 41.51 40.45 40.89 38.42 36.89 37.03 35.07 35.56 35.92 39.14 44.07 43.65 38.00 40.98 36.75 31.63 33.85 40.66 42.98 42.09 38.31 38.56 32.43 30.94 33.66 32.26 33.00 43.91 44.25 45.48 46.22 45.32 44.28 43.73 42.54
33.55 37.10 44.36 44.80 26.50 28.60 32.88 32.76 33.79 33.27 38.13 38.45 36.82 40.04 40.83 37.43 34.09 36.90 37.36 42.97 43.44 42.60 39.12 40.83 33.75 29.21 30.26 35.62 39.87 37.46 39.44 39.95 39.04 35.64 31.32 28.81 32.16 44.03 45.18 44.75 45.27 44.64 43.10 42.27 41.13
35.96 29.71 34.44 36.79 38.01 30.94 28.83 31.37 30.46 34.85 36.11 38.71 38.18 40.36 38.78 36.58 38.82 36.25 37.07 40.92 43.07 42.94 43.05 42.54 36.53 32.35 28.68 32.35 36.72 33.39 36.45 38.85 37.45 31.45 32.10 32.88 35.18 40.19 42.21 42.56 43.49 42.92 42.93 41.53 39.87
35.28 32.21 33.91 28.02 30.45 32.66 32.60 33.00 31.43 30.44 35.45 37.94 35.50 37.81 37.41 33.97 35.23 34.98 38.56 38.84 40.74 41.95 42.06 39.86 32.93 35.18 36.10 36.78 36.92 35.97 35.67 36.97 35.38 35.96 31.96 34.62 34.75 39.82 42.70 44.19 44.23 44.25 43.15 40.77 38.90
33.82 31.94 32.01 32.55 34.03 32.66 33.29 32.29 32.64 33.19 34.83 33.86 34.78 37.51 38.54 35.05 36.39 33.56 37.30 38.25 36.48 39.91 39.41 40.43 32.89 34.95 31.81 36.27 36.20 33.75 36.08 36.69 36.94 37.44 37.34 37.70 37.00 43.67 45.29 46.00 45.59 45.20 43.40 40.55 39.32
37.25 38.62 35.77 31.91 32.43 31.78 32.28 32.13 32.77 33.80 34.80 37.54 37.81 36.39 35.89 37.75 40.92 40.23 41.51 41.60 40.59 38.37 37.37 37.07 34.81 32.33 28.46 34.26 33.91 28.73 33.79 35.31 36.46 38.72 37.64 33.84 39.00 43.18 42.66 43.29 44.13 44.97 44.36 41.53 40.46
MSLP
1015.76 1015.83 1015.84 1015.89 1016.10 1016.39 1016.73 1016.92 1017.07 1017.39 1017.55 1017.74 1017.79 1017.86 1017.91 1017.84 1017.88 1017.48 1016.57 1016.16 1015.99 1015.99 1015.69 1014.53 1013.71 1013.19 1012.73 1012.36 1012.30 1011.88 1010.75 1009.83 1010.16 1010.48 1010.68 1011.63 1011.50 1012.05 1012.24 1011.86 1012.19 1012.58 1012.83 1013.89 1014.60
1015.69 1015.56 1015.62 1015.74 1015.83 1016.18 1016.50 1016.81 1017.05 1017.21 1017.38 1017.67 1017.79 1017.88 1017.92 1017.93 1017.55 1016.70 1016.23 1016.27 1016.35 1016.22 1015.50 1014.74 1013.90 1013.51 1012.61 1012.60 1012.32 1011.86 1011.13 1010.37 1011.25 1011.27 1011.30 1011.81 1011.93 1011.94 1012.05 1012.01 1012.11 1012.51 1013.37 1014.07 1014.61
1015.52 1015.45 1015.55 1015.57 1015.71 1015.90 1016.20 1016.53 1016.80 1017.09 1017.21 1017.54 1017.73 1017.85 1017.90 1017.78 1017.13 1015.68 1016.19 1016.28 1016.35 1016.29 1015.81 1015.37 1014.77 1014.04 1013.16 1012.96 1012.50 1012.21 1011.67 1011.47 1012.14 1012.42 1012.39 1012.26 1012.31 1012.46 1012.12 1011.99 1012.01 1012.28 1013.11 1013.77 1014.19
1015.52 1015.46 1015.37 1015.52 1015.56 1015.85 1016.01 1016.32 1016.60 1016.91 1017.09 1017.38 1017.67 1017.78 1017.98 1017.73 1016.75 1016.02 1016.35 1016.32 1016.25 1016.20 1015.92 1015.36 1014.78 1014.11 1013.44 1013.02 1012.81 1012.72 1012.50 1012.59 1012.91 1013.39 1013.20 1012.90 1012.81 1012.62 1012.49 1012.28 1012.81 1012.87 1013.34 1013.61 1013.72
1015.31 1015.35 1015.34 1015.30 1015.37 1015.68 1015.83 1016.01 1016.34 1016.67 1016.90 1017.19 1017.51 1017.78 1018.11 1017.38 1015.88 1016.11 1016.20 1016.02 1015.90 1016.06 1015.69 1015.33 1014.66 1014.12 1013.48 1013.21 1013.31 1013.09 1012.70 1013.17 1013.42 1013.78 1013.71 1013.66 1013.28 1012.93 1012.76 1012.53 1013.00 1013.10 1013.41 1013.35 1013.53
1015.03 1015.22 1015.30 1015.21 1015.36 1015.49 1015.68 1015.93 1016.13 1016.37 1016.75 1017.06 1017.46 1017.91 1017.89 1016.71 1015.73 1016.10 1016.23 1016.16 1015.99 1015.80 1015.53 1015.24 1014.59 1014.18 1013.86 1013.40 1013.72 1012.99 1013.15 1013.43 1013.54 1013.59 1013.78 1013.85 1013.23 1013.40 1012.82 1012.68 1012.85 1013.04 1012.92 1012.99 1013.26
1014.70 1015.16 1015.13 1015.19 1015.11 1015.25 1015.33 1015.73 1015.87 1016.10 1016.61 1016.91 1017.38 1017.86 1017.32 1016.04 1015.97 1016.26 1016.42 1016.32 1016.29 1015.95 1015.55 1015.51 1015.11 1014.99 1014.20 1014.10 1014.15 1014.01 1013.89 1013.86 1013.72 1013.72 1013.56 1013.89 1013.24 1012.78 1012.92 1012.64 1012.67 1012.56 1012.55 1012.69 1012.96
1014.39 1014.53 1015.11 1015.11 1015.02 1015.11 1015.25 1015.60 1015.75 1016.14 1016.51 1016.90 1017.50 1017.77 1016.43 1015.76 1015.98 1016.58 1016.42 1016.35 1016.46 1016.47 1016.23 1016.01 1016.05 1015.43 1015.07 1014.79 1014.65 1014.41 1014.14 1013.37 1013.17 1013.53 1013.73 1014.17 1012.26 1011.95 1012.07 1012.48 1012.51 1012.12 1012.22 1012.36 1012.53
1013.92 1014.19 1014.65 1015.14 1015.04 1015.02 1015.21 1015.37 1015.67 1016.19 1016.57 1017.03 1017.73 1017.55 1016.35 1016.13 1016.15 1016.51 1016.36 1016.23 1016.54 1016.67 1016.60 1016.58 1016.30 1015.82 1015.72 1015.18 1014.67 1014.17 1013.24 1013.11 1012.92 1013.42 1013.73 1014.05 1012.54 1012.12 1012.39 1012.31 1012.47 1012.19 1012.08 1012.02 1011.89
1013.39 1013.81 1014.42 1015.02 1014.96 1014.87 1015.08 1015.21 1015.82 1016.30 1016.73 1017.46 1017.61 1017.93 1016.20 1015.52 1015.64 1016.16 1016.51 1016.46 1016.51 1016.64 1016.79 1016.75 1016.47 1015.85 1015.65 1015.08 1013.62 1013.69 1013.50 1013.40 1012.89 1013.55 1014.10 1013.65 1012.91 1012.62 1012.68 1012.88 1012.64 1012.44 1012.08 1011.80 1011.58
1012.79 1013.32 1013.89 1014.11 1014.96 1014.93 1015.09 1015.69 1016.40 1016.24 1015.78 1015.43 1015.42 1015.81 1014.70 1014.92 1015.39 1015.88 1016.25 1016.71 1016.53 1016.34 1016.31 1016.40 1016.05 1014.92 1014.99 1014.97 1014.68 1014.00 1013.78 1013.47 1013.63 1013.79 1014.48 1014.12 1013.34 1012.68 1012.45 1012.16 1011.99 1011.93 1011.81 1011.55 1011.14
1012.26 1012.81 1013.42 1013.77 1014.73 1014.76 1014.98 1014.46 1013.50 1013.42 1014.74 1015.22 1014.94 1015.76 1015.40 1015.14 1015.46 1015.70 1016.07 1016.50 1016.06 1015.64 1016.13 1016.02 1014.82 1014.92 1015.11 1015.04 1014.99 1014.76 1014.46 1014.35 1014.48 1014.72 1015.42 1014.65 1013.46 1012.79 1012.10 1011.59 1011.58 1011.51 1011.37 1011.05 1010.81
1011.65 1012.40 1012.92 1013.53 1014.08 1014.50 1014.36 1014.01 1013.63 1013.51 1013.93 1015.02 1014.55 1015.23 1015.79 1015.59 1014.94 1014.90 1015.34 1015.61 1015.52 1015.49 1015.20 1014.90 1014.55 1014.83 1014.69 1014.82 1014.87 1014.76 1014.66 1014.85 1014.95 1014.90 1015.06 1014.77 1012.60 1011.85 1010.61 1010.66 1010.95 1011.10 1011.10 1011.10 1011.03
1011.11 1011.92 1012.64 1013.42 1014.44 1014.05 1013.64 1014.06 1014.29 1014.21 1013.86 1014.19 1014.31 1014.28 1015.68 1015.72 1015.25 1014.46 1014.91 1015.06 1015.12 1014.74 1015.08 1014.91 1014.75 1014.90 1014.76 1014.72 1015.10 1014.66 1014.99 1015.22 1015.52 1015.69 1014.92 1014.60 1011.94 1010.65 1010.22 1010.03 1010.22 1010.69 1010.98 1011.07 1011.16
1010.64 1011.51 1012.20 1012.99 1012.80 1013.16 1013.40 1013.61 1014.57 1014.41 1013.15 1011.76 1013.44 1013.89 1014.68 1015.23 1014.33 1014.78 1014.65 1015.00 1014.69 1014.80 1014.79 1014.01 1014.33 1014.67 1014.46 1014.37 1015.18 1015.11 1015.00 1015.63 1016.06 1015.96 1015.61 1014.62 1013.93 1010.50 1010.05 1009.79 1010.12 1010.43 1010.66 1011.11 1012.13
1010.10 1011.05 1011.89 1012.64 1012.67 1012.56 1013.33 1013.61 1014.50 1013.52 1011.21 1011.23 1011.98 1012.95 1014.26 1014.68 1013.99 1014.70 1014.81 1015.15 1015.13 1015.20 1014.89 1014.43 1015.07 1014.78 1014.39 1014.77 1015.10 1015.60 1016.06 1016.51 1016.58 1016.54 1015.01 1014.49 1013.66 1009.58 1009.34 1009.15 1009.49 1010.16 1011.20 1012.18 1013.07
1009.59 1010.52 1011.44 1011.93 1011.99 1012.75 1013.42 1013.85 1012.29 1010.40 1010.80 1010.59 1011.01 1011.65 1012.28 1013.26 1014.13 1013.99 1014.18 1014.60 1014.32 1015.03 1014.55 1014.92 1014.94 1015.06 1014.87 1014.87 1015.58 1015.37 1016.07 1016.51 1016.88 1016.40 1013.49 1013.13 1012.64 1008.64 1009.37 1009.38 1009.58 1010.68 1011.59 1012.94 1013.97
1009.10 1010.16 1010.91 1011.46 1012.34 1013.17 1014.00 1013.51 1010.03 1008.30 1009.65 1010.13 1010.41 1011.36 1011.69 1012.67 1013.74 1013.58 1013.99 1014.07 1014.02 1013.66 1013.68 1014.10 1014.62 1014.45 1014.50 1014.30 1014.58 1014.82 1014.84 1014.36 1014.85 1014.59 1013.05 1012.73 1010.72 1009.13 1008.95 1009.18 1010.37 1011.46 1012.05 1013.30 1014.11
1008.85 1009.92 1010.66 1011.40 1012.29 1013.29 1014.04 1012.48 1008.93 1009.26 1009.05 1009.59 1010.47 1010.55 1011.17 1011.84 1012.46 1012.93 1012.79 1012.68 1012.71 1012.59 1012.97 1013.45 1013.67 1013.61 1013.91 1014.26 1014.33 1014.78 1014.69 1014.71 1014.78 1015.00 1014.23 1011.71 1010.34 1009.66 1009.64 1010.24 1010.96 1011.60 1012.45 1013.34 1014.46
1008.65 1009.78 1010.39 1011.33 1012.31 1013.56 1013.41 1011.78 1010.80 1008.91 1009.05 1008.69 1008.81 1009.29 1009.84 1010.74 1011.70 1012.08 1011.85 1011.50 1011.74 1012.22 1012.42 1012.86 1013.49 1013.59 1014.12 1014.49 1014.23 1013.98 1014.60 1015.15 1015.68 1014.87 1013.51 1010.89 1009.56 1008.11 1008.86 1009.74 1010.63 1011.76 1012.38 1013.52 1014.74
1008.87 1009.62 1009.74 1011.09 1012.54 1013.48 1012.22 1011.90 1011.51 1009.93 1008.89 1007.89 1007.63 1008.44 1008.97 1009.65 1010.32 1011.02 1010.91 1010.81 1011.05 1011.59 1012.61 1012.61 1013.02 1014.09 1014.05 1013.49 1013.06 1014.01 1014.30 1014.38 1014.44 1014.42 1012.86 1011.00 1008.37 1007.37 1007.45 1008.20 1009.82 1011.15 1012.24 1013.47 1014.83
1008.88 1009.76 1009.66 1010.82 1012.35 1012.19 1011.83 1011.98 1011.31 1010.47 1008.47 1007.24 1006.85 1007.07 1007.50 1008.92 1009.61 1009.83 1009.80 1009.69 1010.32 1011.00 1011.65 1012.21 1013.00 1013.29 1013.24 1013.05 1013.08 1012.93 1013.05 1013.87 1013.70 1013.61 1013.23 1011.96 1008.71 1007.75 1008.22 1008.61 1009.37 1010.77 1012.16 1013.35 1014.53
1009.45 1009.86 1010.56 1010.31 1011.10 1011.35 1011.09 1011.48 1011.74 1011.14 1008.93 1007.42 1007.20 1006.55 1006.80 1007.75 1008.78 1009.03 1009.12 1009.36 1010.17 1010.77 1010.88 1011.98 1012.87 1013.07 1012.97 1013.31 1012.93 1012.56 1012.49 1012.94 1013.31 1013.60 1012.56 1011.17 1008.21 1008.38 1007.80 1009.15 1010.00 1010.79 1012.27 1013.42 1014.50
1009.73 1010.60 1011.14 1010.65 1010.28 1010.55 1010.71 1010.63 1010.19 1010.54 1009.65 1007.71 1007.35 1006.66 1006.09 1007.09 1007.64 1008.10 1008.60 1009.28 1009.93 1010.38 1011.16 1011.81 1012.02 1011.75 1010.87 1010.16 1011.38 1012.03 1011.82 1011.97 1012.40 1012.68 1010.97 1010.42 1008.46 1007.97 1008.48 1009.03 1009.80 1010.95 1011.97 1013.14 1014.20
1009.86 1009.67 1009.33 1009.83 1009.84 1010.24 1010.44 1010.80 1010.76 1010.41 1008.86 1007.88 1007.84 1006.46 1005.74 1006.80 1008.01 1008.16 1008.33 1009.38 1010.25 1010.60 1011.31 1012.20 1012.13 1011.91 1011.03 1010.91 1010.78 1010.30 1010.63 1010.89 1011.21 1010.86 1010.49 1008.75 1009.23 1007.22 1007.08 1007.91 1008.84 1010.15 1011.42 1012.53 1013.55
1009.80 1009.50 1009.52 1008.77 1009.26 1009.78 1010.34 1010.46 1009.81 1009.40 1008.36 1007.58 1006.85 1006.40 1006.37 1006.67 1006.78 1007.16 1007.89 1008.78 1009.52 1010.78 1011.12 1011.87 1011.91 1011.98 1011.38 1010.92 1010.60 1010.04 1010.04 1009.99 1009.40 1009.17 1009.51 1008.75 1007.73 1006.30 1006.82 1007.10 1007.66 1008.83 1010.22 1011.48 1012.48
1009.48 1008.99 1008.33 1008.23 1008.95 1009.12 1009.19 1008.75 1008.56 1009.15 1008.65 1007.48 1007.23 1006.96 1007.05 1006.98 1007.87 1009.10 1008.87 1009.34 1009.79 1010.29 1011.06 1011.63 1011.91 1012.07 1011.13 1010.78 1010.62 1009.96 1009.04 1008.42 1008.65 1008.61 1007.98 1007.37 1006.24 1006.25 1005.89 1006.17 1006.69 1007.63 1008.97 1009.90 1011.01
Wind_Speed
12 12 11 11 13 13 13 11 10 9 8 6 6 5 4 3 6 9 11 2 4 7 11 10 7 6 4 2 3 4 6 6 3 4 7 6 4 3 1 2 1 3 8 7 6
12 12 12 12 11 14 14 13 11 10 8 7 6 5 4 3 9 12 2 2 2 6 6 6 5 6 4 2 1 5 5 3 6 4 1 3 2 2 5 6 5 6 7 6 6
12 13 12 12 11 12 15 14 12 10 9 8 6 5 4 6 8 4 7 4 6 5 4 5 6 7 7 4 4 2 9 5 1 3 3 1 2 1 4 5 4 3 7 5 3
11 12 13 12 11 12 14 15 13 11 10 9 7 6 4 6 8 4 6 6 6 11 8 5 7 9 8 9 5 7 6 4 2 1 1 4 2 4 5 4 3 3 4 1 1
9 9 11 13 12 13 12 13 14 12 11 10 9 7 4 8 12 5 5 2 6 10 13 12 11 10 11 7 7 11 8 6 4 4 4 2 8 8 7 5 5 3 3 5 4
11 9 10 10 13 13 12 13 14 13 12 11 9 6 9 16 4 2 1 4 3 11 13 13 8 10 9 11 12 2 11 11 6 8 6 6 11 3 7 8 5 5 8 6 6
12 10 5 5 8 13 11 12 12 13 13 12 10 8 15 14 2 2 3 3 1 6 9 10 7 8 6 8 6 5 9 10 11 11 12 4 15 18 14 13 12 13 11 9 9
15 11 9 5 6 9 10 11 11 12 13 11 10 10 13 11 8 3 4 5 2 2 4 3 6 10 8 3 4 10 13 16 14 15 7 6 18 11 6 8 13 10 7 9 11
16 14 11 11 2 7 9 10 10 12 13 10 5 9 11 6 12 12 6 8 7 4 2 4 4 9 6 11 13 13 15 18 18 7 11 12 14 12 5 7 13 12 10 12 15
16 15 15 12 5 4 8 6 9 9 9 5 2 7 5 11 10 18 5 6 8 8 5 7 7 9 12 14 17 17 17 18 14 9 12 17 18 16 9 11 13 16 17 16 17
16 15 18 13 11 2 6 3 6 6 12 4 10 4 5 8 10 15 12 9 10 14 14 14 11 17 18 19 15 17 13 17 13 10 5 15 18 19 17 18 18 17 17 18 20
17 18 21 18 16 8 2 6 18 2 9 10 10 15 2 9 7 13 14 13 13 16 19 11 17 18 18 18 19 18 17 15 11 3 4 15 21 20 20 20 19 19 19 20 19
17 18 19 21 13 7 9 16 8 3 6 11 5 19 5 14 9 20 22 18 14 18 23 22 2 19 14 16 18 20 20 15 15 11 13 16 24 24 24 24 21 20 20 18 15
18 18 18 18 7 5 13 10 5 6 6 11 11 8 4 9 7 12 18 17 10 21 18 18 21 11 19 18 16 19 16 14 13 11 11 5 9 13 7 10 13 15 14 15 12
19 19 20 23 5 12 5 7 5 2 13 17 11 13 13 11 14 10 17 11 16 12 16 12 17 20 18 19 18 13 9 9 11 13 16 18 13 9 11 10 9 9 11 11 4
21 19 20 15 9 7 13 9 4 9 12 9 12 15 16 20 5 10 18 7 4 12 18 20 1 13 22 8 17 7 5 4 5 8 14 16 15 14 16 18 18 2 1 4 3
22 21 19 12 12 9 5 7 11 11 7 9 12 22 29 13 12 16 19 17 13 8 12 16 14 6 5 18 13 18 12 5 6 8 11 4 14 20 2 2 4 5 2 5 5
24 20 16 11 10 7 3 6 19 18 5 7 13 21 23 18 12 20 20 18 18 16 11 12 9 17 12 16 10 22 17 7 8 10 9 13 12 13 9 11 3 2 5 8 7
24 11 10 10 12 7 4 12 13 3 12 16 20 25 13 13 9 20 22 22 20 20 11 14 12 5 17 13 14 14 19 16 13 1 5 10 10 11 7 9 8 8 7 8 7
12 10 12 13 13 7 5 6 8 11 12 20 15 17 13 21 16 18 21 19 20 23 14 6 4 9 11 9 14 12 8 10 4 7 13 14 18 13 15 16 11 11 12 10 8
7 6 6 14 10 4 5 4 5 12 19 19 16 13 13 11 14 13 11 10 24 23 19 8 6 6 7 15 17 13 10 9 7 10 8 13 14 11 9 13 14 15 12 11 10
6 5 10 12 8 3 8 4 1 9 21 16 14 17 21 22 20 17 20 19 21 19 25 20 7 10 16 5 17 18 21 18 8 10 5 6 13 4 3 6 8 11 12 12 13
5 2 3 10 10 12 5 12 4 3 18 14 7 13 22 20 13 16 18 19 10 23 16 15 7 5 6 7 12 14 20 22 19 4 15 12 17 4 6 8 8 10 12 13 14
4 5 1 5 6 13 15 5 6 6 13 5 12 11 21 16 10 19 19 11 11 17 14 14 13 16 18 17 11 16 22 23 20 13 20 19 26 23 13 13 11 12 14 15 16
2 4 2 9 11 12 15 5 19 5 6 7 5 11 21 9 14 7 21 14 8 14 18 10 9 21 23 21 20 16 22 23 24 25 19 22 18 28 24 18 16 17 15 17 18
2 3 5 8 16 20 11 11 18 6 4 6 9 14 15 10 15 16 17 18 11 14 18 16 9 14 17 21 21 24 19 17 26 27 24 27 27 27 19 18 16 16 17 18 19
4 5 3 3 10 11 9 3 4 2 8 4 17 13 11 7 6 8 5 4 5 13 19 17 10 8 17 15 17 20 26 26 20 23 24 24 29 26 26 22 16 13 19 21 21
Wind_Direction
262 253 237 227 224 217 219 215 211 208 211 220 214 220 237 288 271 254 261 324 352 335 312 302 281 317 292 341 332 296 255 219 173 201 113 137 192 108 59 170 124 73 51 86 102
277 259 248 243 227 221 216 212 209 207 208 218 216 223 232 255 266 264 213 193 228 314 288 316 295 308 242 258 280 275 268 278 31 23 92 111 263 121 218 172 160 152 110 103 133
309 271 252 243 239 224 218 211 203 203 205 211 215 216 222 254 281 253 28 259 232 243 282 289 281 282 256 258 189 168 255 64 133 32 358 65 217 240 246 216 68 93 115 109 120
303 304 268 241 235 232 219 214 205 199 199 204 211 216 221 229 238 63 353 289 245 240 242 241 235 235 245 226 200 243 242 252 86 79 250 226 355 241 250 72 93 104 94 127 234
283 298 286 254 238 231 227 215 210 200 194 195 200 215 201 221 240 96 353 31 219 204 220 223 235 238 239 227 213 237 244 222 181 193 237 277 253 264 252 239 193 219 226 253 224
261 281 299 253 241 236 225 224 210 200 192 193 193 203 232 236 276 181 29 357 296 202 218 226 239 242 286 240 225 327 236 229 215 229 220 241 251 185 229 262 231 223 247 234 245
237 251 266 265 241 236 229 221 219 198 196 190 189 199 226 227 103 243 231 293 318 236 219 230 255 220 219 238 225 217 219 225 236 238 242 253 249 245 241 249 243 267 252 246 254
249 215 248 282 260 229 228 221 219 202 192 183 183 204 231 233 226 250 184 203 171 207 272 191 256 248 235 80 190 221 232 247 228 226 205 224 260 259 211 226 244 237 238 244 264
239 228 209 241 305 232 222 220 219 211 191 158 176 208 224 118 210 220 217 206 182 163 149 197 219 224 193 218 228 218 237 229 242 213 231 216 265 258 316 226 251 252 253 263 269
230 232 192 228 231 242 214 196 222 215 177 141 341 194 245 208 188 202 186 224 190 176 156 186 205 213 214 213 223 228 227 246 234 190 226 242 250 258 196 220 246 262 267 269 270
229 229 208 189 223 201 172 134 155 203 206 204 162 234 188 164 163 191 178 177 206 205 206 202 210 216 218 221 230 256 256 246 246 241 259 257 262 265 263 264 260 260 261 261 264
216 221 213 184 217 177 157 218 194 37 199 226 170 203 254 164 152 194 176 189 191 201 210 197 223 223 226 229 232 237 246 244 259 248 270 270 268 268 264 256 255 256 260 263 267
211 216 212 203 194 202 221 211 283 217 203 201 186 183 174 209 195 188 183 198 196 200 203 217 182 219 219 218 223 229 235 240 249 259 231 270 273 253 249 245 245 248 254 263 272
203 207 205 191 177 200 228 214 250 244 232 189 185 196 163 221 224 181 191 181 199 212 201 230 232 225 218 222 221 236 227 244 260 263 254 161 291 299 273 252 237 233 248 259 260
194 204 197 186 170 189 217 180 114 69 219 177 163 149 155 198 132 187 185 201 209 202 197 204 210 207 222 214 216 248 249 219 239 251 269 252 267 277 241 249 240 229 248 241 78
191 196 190 194 223 210 193 160 157 217 225 156 140 166 157 202 191 137 176 198 219 212 221 222 85 243 224 209 228 220 168 193 247 260 253 245 240 259 246 234 237 212 148 98 125
190 188 186 191 205 175 149 184 224 211 148 159 166 169 184 174 174 170 173 186 179 175 194 213 222 231 221 207 208 201 188 195 215 211 247 203 217 250 90 23 177 234 281 154 170
182 178 195 200 202 173 142 262 218 194 150 157 163 173 185 156 191 178 172 186 213 204 185 194 201 197 192 203 189 196 192 187 217 222 259 195 237 239 270 243 210 208 172 174 174
172 179 192 195 188 148 160 223 215 197 161 164 178 171 185 174 139 181 184 195 197 192 191 201 233 181 179 197 192 190 223 229 282 334 275 236 225 259 211 186 198 217 207 203 177
168 176 201 190 177 172 218 220 300 168 193 171 173 180 177 172 166 199 185 201 199 204 216 184 235 180 171 203 233 229 205 205 197 223 234 242 252 252 183 215 208 223 219 194 184
146 166 182 176 165 197 228 224 257 277 194 174 182 173 176 171 170 188 175 185 204 196 210 209 232 157 161 206 195 196 221 224 222 237 248 260 255 249 258 216 197 213 207 193 192
150 172 144 146 178 197 227 157 8 284 245 208 198 182 179 170 193 189 192 197 202 198 198 208 221 220 207 223 229 212 213 210 212 193 221 273 262 152 70 270 183 193 191 190 190
121 99 119 166 198 226 172 214 175 298 227 188 211 187 176 171 180 181 207 205 199 204 191 185 226 199 237 242 219 228 233 219 232 267 238 237 258 309 255 208 219 194 190 193 190
114 164 198 206 215 199 231 249 221 245 252 170 164 210 164 176 186 192 202 190 174 209 197 188 224 221 229 232 190 211 228 230 232 237 245 237 251 262 218 220 206 206 200 196 195
175 204 210 185 178 185 200 283 205 229 244 172 151 185 165 156 178 190 203 175 192 201 204 195 231 230 242 255 262 235 225 226 226 231 229 246 239 255 256 252 209 214 204 200 198
203 167 212 160 172 186 164 208 198 161 198 185 164 172 171 169 187 193 193 185 177 197 202 194 234 226 247 247 242 251 246 242 230 235 242 247 252 254 262 259 247 209 206 208 203
213 219 274 79 150 166 171 131 127 85 19 128 147 125 172 145 169 45 86 234 182 190 207 210 223 221 246 240 246 246 235 237 244 235 238 240 248 255 253 256 250 223 209 210 206